Retour au catalogue

ORBCOMM FM 19

ActifCommunicationsLEO
NORAD 25415·PAYLOAD·🇺🇸 United States

Lancé Aug 2, 1998 depuis Cape Canaveral Space Force Station

Loading…

Prochains Passages (prochaines 24 heures)

TLE

FraisSource: Space-Track

Époque: Sep 14, 2026, 03:11 UTC

1 25415U 98046C   26257.13308339  .00000752  00000-0  28357-3 0  9998
2 25415  44.9931 180.7186 0004618  16.2064 118.0116 14.39635316469590

Suivez ORBCOMM FM 19 en temps réel avec AllMySat

Download on the App Store